FAU Stadium FL US WEATHERSTEM current weather conditions

sailwx.info

Wind from 241 at 8 knots gusting 12

Air temperature 30.2° C
Dewpoint 25.9° C

Last reported at 2020-Jul-10 04:00 UTC.
Time now 2020-Jul-10 04:43 UTC

Location: N 26°23' W 080°06'.
View on Google Maps.

See reports from other nearby stations

  
Tides and Currents Weather Stations Pressure Air Temp Water Temp Dewpoint Dewpoint Depression Visibility Wind Speed Wind Dir Waves Ship Positions
date/time (UTC)wind fromknots sea level pressurealtimeterstation pressurevisibilityair tempwater tempwave heightnotes
2020-Jul-10 04:00 241 8 gusting 12 30.2
2020-Jul-10 03:50 248 7 gusting 12 30.3
2020-Jul-10 03:40 227 6 gusting 11 30.3
2020-Jul-10 03:30 223 6 gusting 11 30.4
2020-Jul-10 03:20 188 2 gusting 6 30.4
2020-Jul-10 03:10 231 5 gusting 8 30.4
2020-Jul-10 03:00 200 2 gusting 8 30.5
2020-Jul-10 02:50 195 4 gusting 10 30.4
2020-Jul-10 02:40 186 5 gusting 9 30.3
2020-Jul-10 02:30 189 4 gusting 8 30.1
2020-Jul-10 02:20 167 6 gusting 10 30.2
2020-Jul-10 02:10 190 4 gusting 10 30.1
2020-Jul-10 02:00 29.8
2020-Jul-10 01:50 29.8
2020-Jul-10 01:40 29.8
2020-Jul-10 01:30 29.8
2020-Jul-10 01:20 29.8
2020-Jul-10 01:10 172 11 gusting 14 29.8
2020-Jul-10 01:00 172 11 gusting 14 29.8
2020-Jul-10 00:50 179 7 gusting 17 29.8
2020-Jul-10 00:40 175 9 gusting 17 29.8
2020-Jul-10 00:30 165 8 gusting 13 29.8
2020-Jul-10 00:20 143 13 gusting 16 29.9
2020-Jul-10 00:10 169 10 gusting 16 29.9
2020-Jul-10 00:00 160 13 gusting 16 30.0
2020-Jul-09 23:50 166 13 gusting 14 30.1
2020-Jul-09 23:40 161 6 gusting 14 30.3
2020-Jul-09 23:30 163 12 gusting 15 30.5
2020-Jul-09 23:20 145 13 gusting 16 30.4
2020-Jul-09 23:10 159 7 gusting 14 30.6
2020-Jul-09 23:00 120 10 gusting 19 30.3
2020-Jul-09 22:50 156 17 gusting 21 30.3
2020-Jul-09 22:40 124 19 gusting 20 30.2
2020-Jul-09 22:30 161 12 gusting 19 30.4
2020-Jul-09 22:20 159 15 gusting 18 30.7
2020-Jul-09 22:10 150 7 gusting 19 30.8
2020-Jul-09 22:00 136 16 gusting 18 30.7
2020-Jul-09 21:50 143 11 gusting 16 30.7
2020-Jul-09 21:40 146 14 gusting 16 30.8
2020-Jul-09 21:30 142 7 gusting 14 30.9
2020-Jul-09 21:20 144 10 gusting 15 30.8
2020-Jul-09 21:10 146 8 gusting 14 30.7
2020-Jul-09 21:00 128 8 gusting 16 30.5
2020-Jul-09 20:50 153 11 gusting 16 30.4
2020-Jul-09 20:40 138 11 gusting 15 30.8
2020-Jul-09 20:30 113 7 gusting 16 30.8
2020-Jul-09 20:20 146 4 gusting 14 31.3
2020-Jul-09 20:10 151 10 gusting 12 32.3
2020-Jul-09 20:00 242 4 gusting 7 35.1
2020-Jul-09 19:50 286 6 gusting 6 35.2
2020-Jul-09 19:40 277 1 gusting 10 35.0
2020-Jul-09 19:30 244 8 gusting 8 35.5
2020-Jul-09 19:20 34.3
2020-Jul-09 19:10 282 7 gusting 12 34.5
2020-Jul-09 19:00 259 3 gusting 9 34.2
2020-Jul-09 18:50 275 6 gusting 11 34.1
2020-Jul-09 18:40 284 6 gusting 11 33.9
2020-Jul-09 18:30 245 7 gusting 12 34.1
2020-Jul-09 18:20 261 6 gusting 13 34.2
2020-Jul-09 18:10 216 6 gusting 10 33.9
2020-Jul-09 18:00 32.3
2020-Jul-09 17:50 32.3
2020-Jul-09 16:10 320 9 gusting 9 32.8
2020-Jul-09 16:00 32.3
2020-Jul-09 15:50 32.3
2020-Jul-09 15:40 335 2 gusting 6 32.3
2020-Jul-09 15:30 335 2 gusting 6 32.3
2020-Jul-09 15:10 188 2 gusting 6 31.9
2020-Jul-09 15:00 31.3
2020-Jul-09 14:50 285 5 gusting 8 30.9
2020-Jul-09 14:40 268 2 gusting 8 30.7
2020-Jul-09 14:30 267 3 gusting 9 30.6
2020-Jul-09 14:20 247 3 gusting 10 30.6
2020-Jul-09 14:10 195 0 gusting 6 30.6
2020-Jul-09 14:00 244 0 gusting 7 30.3
2020-Jul-09 13:50 277 5 gusting 8 30.0
2020-Jul-09 13:40 213 2 gusting 7 29.4
2020-Jul-09 13:30 238 1 gusting 9 28.8
2020-Jul-09 13:20 260 6 gusting 9 28.7
2020-Jul-09 13:10 281 2 gusting 8 28.6
2020-Jul-09 13:00 332 1 gusting 8 28.3
2020-Jul-09 12:50 315 3 gusting 9 27.9
2020-Jul-09 12:40 298 0 gusting 10 27.6
2020-Jul-09 12:20 26.9
2020-Jul-09 12:10 26.9
2020-Jul-09 12:00 26.9
2020-Jul-09 11:40 26.9
2020-Jul-09 11:30 26.9
2020-Jul-09 11:20 26.9
2020-Jul-09 11:10 26.9
2020-Jul-09 10:50 26.9
2020-Jul-09 10:40 26.9
2020-Jul-09 10:30 26.9
2020-Jul-09 10:20 26.9
2020-Jul-09 10:10 26.9
2020-Jul-09 10:00 26.9
2020-Jul-09 09:50 26.9
2020-Jul-09 09:40 26.9
2020-Jul-09 09:30 26.9
2020-Jul-09 09:20 26.9
2020-Jul-09 09:10 26.9
2020-Jul-09 09:00 26.9
2020-Jul-09 08:50 26.9
2020-Jul-09 08:40 26.9
2020-Jul-09 08:20 272 5 gusting 8 26.9
2020-Jul-09 08:10 283 6 gusting 8 26.9
2020-Jul-09 08:00 273 6 gusting 7 27.0
2020-Jul-09 07:50 295 2 gusting 8 27.0
2020-Jul-09 07:40 255 6 gusting 8 27.1
2020-Jul-09 07:30 257 4 gusting 8 27.1
2020-Jul-09 07:20 27.3
2020-Jul-09 07:10 27.3
2020-Jul-09 07:00 27.3
2020-Jul-09 06:50 27.3
2020-Jul-09 06:40 27.3
2020-Jul-09 06:30 249 2 gusting 6 27.3
2020-Jul-09 06:20 254 4 gusting 5 27.3
2020-Jul-09 06:10 255 2 gusting 4 27.4
2020-Jul-09 06:00 243 2 gusting 6 27.4
2020-Jul-09 05:50 261 5 gusting 6 27.3
2020-Jul-09 05:40 246 3 gusting 6 27.4
2020-Jul-09 05:30 196 1 gusting 6 27.4
2020-Jul-09 05:20 196 6 gusting 6 27.6
2020-Jul-09 05:10 189 3 gusting 7 27.8
2020-Jul-09 05:00 240 6 gusting 7 28.0
2020-Jul-09 04:50 263 1 gusting 6 28.1
2020-Jul-09 04:40 267 2 gusting 6 28.2
2020-Jul-09 04:30 213 4 gusting 4 28.3
2020-Jul-09 04:20 29.1
2020-Jul-09 04:10 29.1
2020-Jul-09 04:00 29.1
2020-Jul-09 03:50 29.1
2020-Jul-09 03:40 29.1
2020-Jul-09 03:30 247 3 gusting 3 29.1
2020-Jul-09 03:20 247 3 gusting 3 29.1
2020-Jul-09 03:10 246 0 gusting 4 29.1
2020-Jul-09 03:00 245 2 gusting 3 29.1
2020-Jul-09 02:50 240 3 gusting 5 29.2
2020-Jul-09 02:40 229 3 gusting 6 29.1
2020-Jul-09 02:30 244 4 gusting 7 29.1
2020-Jul-09 02:20 204 2 gusting 3 29.1
2020-Jul-09 02:10 204 1 gusting 5 29.1
2020-Jul-09 02:00 188 1 gusting 4 29.1
2020-Jul-09 01:50 190 1 gusting 6 29.2
2020-Jul-09 01:40 180 4 gusting 6 29.3
2020-Jul-09 01:30 186 4 gusting 6 29.7
2020-Jul-09 01:20 212 3 gusting 4 29.7
2020-Jul-09 01:10 235 2 gusting 2 29.7
2020-Jul-09 01:00 235 0 gusting 2 29.8
2020-Jul-09 00:50 29.8
2020-Jul-09 00:40 232 4 gusting 6 29.8
2020-Jul-09 00:30 201 3 gusting 4 29.8
2020-Jul-09 00:20 30.1
2020-Jul-09 00:00 30.1
2020-Jul-08 23:50 30.1
2020-Jul-08 23:30 173 7 gusting 9 30.1
2020-Jul-08 23:10 149 5 gusting 9 30.2
2020-Jul-08 23:00 158 7 gusting 9 30.3
2020-Jul-08 22:40 182 2 gusting 8 30.6
2020-Jul-08 22:30 159 6 gusting 9 30.6
2020-Jul-08 22:10 170 5 gusting 13 30.5
2020-Jul-08 22:00 186 7 gusting 11 30.7
2020-Jul-08 21:50 169 5 gusting 13 30.5
2020-Jul-08 21:40 161 6 gusting 13 30.7
2020-Jul-08 21:30 163 5 gusting 9 30.8
2020-Jul-08 21:20 170 7 gusting 7 31.1
2020-Jul-08 21:10 180 7 gusting 7 31.1
2020-Jul-08 20:30 176 6 gusting 7 29.2
2020-Jul-08 20:10 171 3 gusting 8 28.9
2020-Jul-08 20:00 173 1 gusting 9 28.8
2020-Jul-08 19:50 172 6 gusting 8 28.3
2020-Jul-08 19:40 182 3 gusting 6 28.3
2020-Jul-08 19:30 180 5 gusting 6 28.2
2020-Jul-08 19:10 26.3
2020-Jul-08 19:00 26.3
2020-Jul-08 18:50 26.3
2020-Jul-08 18:40 26.3
2020-Jul-08 18:30 159 8 gusting 8 26.3
2020-Jul-08 18:10 130 4 gusting 9 25.9
2020-Jul-08 18:00 146 5 gusting 13 25.9
2020-Jul-08 17:50 155 11 gusting 12 25.7
2020-Jul-08 17:10 130 6 gusting 6 33.9
2020-Jul-08 16:50 130 6 gusting 6 33.9
2020-Jul-08 15:30 150 4 gusting 4 33.3
2020-Jul-08 15:20 150 4 gusting 4 33.3
2020-Jul-08 15:10 150 4 gusting 4 33.3
2020-Jul-08 15:00 150 4 gusting 4 33.3
2020-Jul-08 13:20 180 0 gusting 0 31.7
2020-Jul-08 13:10 31.7
2020-Jul-08 12:40 170 1 gusting 1 30.6
2020-Jul-08 12:10 28.9
2020-Jul-08 12:00 28.9
2020-Jul-08 11:30 110 0 gusting 0 26.7
2020-Jul-08 11:20 26.7
2020-Jul-08 10:10 26.1
2020-Jul-08 10:00 26.1
2020-Jul-08 09:50 310 0 gusting 0 26.1
2020-Jul-08 09:40 310 0 gusting 0 26.1
2020-Jul-08 09:30 310 1 gusting 1 26.1
2020-Jul-08 07:30 290 0 gusting 0 26.7
2020-Jul-08 07:20 290 0 gusting 0 26.7
2020-Jul-08 05:20 340 1 gusting 1 27.2
2020-Jul-08 04:40 320 1 gusting 1 27.2
2020-Jul-08 04:30 320 1 gusting 1 27.2
2020-Jul-08 04:20 320 1 gusting 1 27.2
2020-Jul-08 04:10 320 2 gusting 2 27.8
2020-Jul-08 04:00 310 1 gusting 1 27.8